Regional Weather Roundup
Issued by NWS

Home | Current Version | Previous Version | Text Only | Print | Product List | Glossary Off
Versions: 1 2 3 4 5 6 7 8 9 10 11 12 13 14 15 16 17 18 19 20 21 22 23 24 25 26 27 28 29 30 31 32 33 34 35 36 37 38 39 40 41 42 43 44 45 46 47 48 49 50

000
ASUS43 KLMK 300002
RWRKY
KENTUCKY REGIONAL WEATHER ROUNDUP
NATIONAL WEATHER SERVICE LOUISVILLE KY
800 PM EDT FRI JUL 29 2016

NOTE "FAIR" INDICATES FEW OR NO CLOUDS BELOW 12,000 FEET
WITH NO SIGNIFICANT WEATHER AND/OR OBSTRUCTIONS TO VISIBILITY.

KYZ001>023-026-027-061>063-070>075-300100-
WESTERN AND SOUTH CENTRAL KENTUCKY

CITY           SKY/WX    TMP DP  RH WIND       PRES   REMARKS
PADUCAH        CLOUDY    80  71  74 W10       29.91R
HENDERSON      MOSUNNY   79  72  78 CALM      29.90R
OWENSBORO      CLOUDY    77  73  87 CALM      29.92R
HOPKINSVILLE   PTSUNNY   74  71  92 VRB3      29.92F
BOWLING GREEN  CLOUDY    80  71  74 SW7       29.92S
GLASGOW        NOT AVBL
$$

KYZ024-025-028>034-038-045-046-053-300100-
NORTH CENTRAL KENTUCKY

CITY           SKY/WX    TMP DP  RH WIND       PRES   REMARKS
LOUISVILLE/SDF TSTM      83  70  64 NW7       29.89S
LOUISVILLE/LOU CLOUDY    79  70  74 NE6       29.91R
FORT KNOX      DRIZZLE   78  73  84 W12       29.90R
$$

KYZ035>037-039>044-047>052-055>060-089>105-300100-
NORTHEAST KENTUCKY

CITY           SKY/WX    TMP DP  RH WIND       PRES   REMARKS
LEXINGTON      PTCLDY    81  72  74 SW5       29.93R
COVINGTON      MOCLDY    83  72  69 NW8       29.90R
FRANKFORT      CLEAR     81  70  69 W3        29.91R
$$

KYZ054-064>069-076>088-106>120-300100-
SOUTHEAST KENTUCKY

CITY           SKY/WX    TMP DP  RH WIND       PRES   REMARKS
JACKSON        CLEAR     74  70  87 CALM      29.97S
LONDON         CLOUDY    75  67  76 S5        29.98R
SOMERSET       CLEAR     75  68  78 SE3       29.97S
MIDDLESBORO    PTCLDY    74  72  93 NW3       29.98S
MONTICELLO     CLEAR    N/A N/A N/A NW8       29.98R
$$





USA.gov is the U.S. government's official web portal to all federal, state and local government web resources and services.